Showing default

KORSAT 7, 58463

Orbit data source: Space-Track

KORSAT 7, 58463 is a payload satellite owned by DAPA (KR) in SSO that was launched on Fri, 01 Dec 2023 UTC via an FALCON 9 launch vehicle from the Air Force Western Test Range (AFWTR). Payload-class satellites include a variety of spacecraft equipped with specific instruments for various scientific and technological missions. These include communications satellites like Starlink; space stations such as the ISS; scientific satellites like the Hubble; Earth observation satellites from companies like Planet Labs, Umbra, and HawkEye 360; GPS; miniature CubeSats for education and research; and military/defense satellites.

Loading next visibility...
Identifier
58463, 2023-185B
Orbit
SSO
Country
Flag of KRKR / SKOR
Related business
Manufacturer
KAI
Mission
Operational Defense Imaging
Bus & Motor
CAS500?, Unknown motor
Mass
~800 kg wet, ~750 kg dry
Launch date (UTC)
2023-12-01 (3 years ago)
Launch vehicle
FALCON 9
Launch site
Air Force Western Test Range (AFWTR)
Object type
Payload
Rocket body
Debris
Shape & HBR
Hex Box + 3 Pan, 3.0 m
Radar Cross Section
10.467 m², Large (>1 m²)

Expand to show TLE details & history
Last TLE update: 21 hours ago

TLE from 21 hours ago
0 KORSAT 7
1 58463U 23185B   26207.65433554  .00002364  00000-0  18888-3 0  9998
2 58463  97.6373 271.2761 0023141 188.4856 171.5981 15.01011678145204
Epoch: 2026-07-26T15:42Z
TLE epoch observation values (Epoch: 2026-07-26T15:42:14.590Z)
Latitude
0.00005°
Longitude
91.36614°
Altitude
582.729 km
Speed
7.56 km/s
True Right ascension
18h 05m 06s
True Declination
0° 00' 00"
Sunlit
Object was in full shadow at epoch
Visualization orbit readout
Latitude
Unknown
Longitude
Unknown
Altitude
Unknown
Speed
Unknown
Apparent Right ascension
Unknown
Apparent Declination
Unknown
Sunlit
N/A
Visualization observer readout
Local Sidereal Time
02:02:29
Azimuth
Unknown
Elevation
Unknown
Doppler factor
Unknown
Orbital elements
Apogee altitude
576.834 km
Perigee altitude
544.719 km
Semi-major axis
6,938.914 km
Eccentricity
0.00231
Inclination
97.6373°
RAAN
271.2761°
Arg. of periapsis
188.4856°
True anomaly
171.63674°
Mean anomaly
171.5981°
Eccentric anomaly
171.61743°
Mean motion
3.75497 °/min
Orbital period
95.87 mins
BSTAR
0.00018888
Loading maneuver chart data...
Computing Atmospheric mass density...
Loading historical data...
Loading historical data...
Loading historical data...
Loading historical data...
Loading historical data...
Loading historical data...
Loading historical data...

Documentation

Showing up to 5 results
|